Etusivu
METAR-TAF:

METAR-TAF

Lentoasemat :

Bay City, Texas, Yhdysvallat

Leveyspiiri: 28-58-23N, Pituuspiiri: 095-51-48W, korkeus merenpinnasta: 14 m

Tämänhetkinen sää

Tämä raportti tehtiin 10 minuuttia sitten, kello 01.55 UTC
Tuuli 5 kn idästä/kaakosta
Lämpötila 17°C
Kosteus 100%
Ilmanpaine 1009 hPa
Näkyvyys: 16.1 km
selkeää

METAR: KBYY 150155Z AUTO 12005KT 10SM CLR 17/17 A2979 RMK AO2 T01750168

Aika: 20:05 (02:05 UTC)


TAF: puuttuu

Säähavainnot ja -ennusteet yli 4000 lentoasemalta (METAR- ja TAF-raportit).

Käytössä olevat sääasemat on merkitty karttaan keltaisilla ja punaisilla pisteillä.

Aseta hiiri pisteen päälle nähdäksesi sääaseman nimen.

Klikkaa sitten nähdäksesi säähavainnot ja -ennusteet.

Kartan vaihtaminen: klikkaa mustalla rastilla varustettuja vihreitä pisteitä, niin voit zoomata sisään; viivalla varustettua vihreää pistettä, niin voit zoomata ulos tai vihreitä nuolia, niin pääset viereisille kartoille.


METAR-TAF: